[[{"header":{"parameterUnit":"m.s-1","parameterCategory":1,"la1":30.2991,"la2":30.254,"lo1":-89.0895,"lo2":-89.0444,"dy":0.0017,"dx":0.0017,"nx":28,"ny":28,"refTime":"2024-06-22T03:00:00:Z","depth":0,"parameterNumber":2,"parameterNumberName":"U-component_of_WINDS"},"data":[0,0,0,0,0,0,0,0,0,0,0,0,0,0,0,0,0,0,0,0,0,0,0,0,0,0,0,0,0,0,0,0,0,0,0,0,0,0,0,0,0,0,0,0,0,0,0,0,0,0,0,0,0,0,0,0,0,0,0.6489,0.649,0,0.653,0.653,0.6531,0.6559,0.656,0.656,0.656,0.6599,0.66,0.6601,0,0,0,0,0,0,0,0,0,0,0,0,0,0.6434,0.6435,0.6489,0.649,0.649,0.653,0.653,0.6531,0.6559,0.656,0.656,0.656,0.6599,0.66,0.6601,0,0,0,0,0,0,0,0,0,0,0,0,0,0.6464,0.6435,0.6489,0.6509,0.6512,0.653,0.653,0.6531,0.6559,0.656,0.656,0.656,0.6598,0.66,0.6601,0.6602,0,0,0.6605,0.6605,0,0,0,0,0,0,0,0,0.6463,0.6466,0.6506,0.6508,0.651,0.654,0.6525,0.6555,0.6559,0.6541,0.656,0.656,0.6579,0.6582,0.6589,0.6604,0.6605,0.6605,0.6606,0.6606,0.6606,0,0,0,0,0,0,0,0.646,0.6465,0.6505,0.6506,0.6509,0.6515,0.652,0.6531,0.6557,0.6543,0.6545,0.6549,0.658,0.6587,0.659,0.6606,0.6605,0.6606,0.6607,0.6607,0.6623,0.6622,0,0,0,0,0,0,0.6455,0.6463,0.6504,0.6507,0.6487,0.6516,0.6521,0.653,0.6557,0.6562,0.6549,0.655,0.6585,0.6588,0.6591,0.6594,0.6606,0.6607,0.6608,0.6623,0.6623,0.6622,0,0,0,0,0,0,0.6454,0.6459,0.6502,0.6485,0.6491,0.6517,0.6526,0.6531,0.6538,0.6562,0.6567,0.6552,0.6585,0.6589,0.6599,0.6595,0.6608,0.6609,0.6623,0.6623,0.6622,0.6599,0,0,0,0,0,0,0.6452,0.6458,0.646,0.6485,0.6492,0.651,0.6526,0.6531,0.654,0.6543,0.6566,0.657,0.6586,0.6597,0.66,0.6597,0.661,0.6624,0.6623,0.6623,0.66,0.6597,0.6595,0,0,0,0,0,0.645,0.6451,0.6459,0.6464,0.6494,0.651,0.6514,0.6533,0.654,0.6541,0.6556,0.6569,0.6595,0.6598,0.6602,0.6599,0.6624,0.6623,0.6623,0.6601,0.6598,0.6595,0,0,0,0,0,0,0.6423,0.6455,0.6464,0.6473,0.6489,0.6515,0.6517,0.6529,0.6543,0.6544,0.6566,0.6571,0.6578,0.659,0.6592,0.6601,0.6611,0.6611,0.6593,0.6591,0.6588,0.6585,0.6611,0,0,0,0,0,0.6419,0.6429,0.6456,0.6461,0.6468,0.6491,0.6499,0.6512,0.6529,0.6535,0.6551,0.6566,0.6578,0.6585,0.6597,0.6602,0.6607,0.6602,0.6599,0.6597,0.6597,0.66,0.6597,0.662,0.662,0.662,0,0,0.6408,0.6427,0.6432,0.6456,0.647,0.648,0.6496,0.6506,0.6514,0.6536,0.6546,0.6559,0.6577,0.6584,0.6588,0.6593,0.6592,0.6596,0.6595,0.6595,0.6599,0.6596,0.6594,0.6619,0.6619,0.662,0,0,0.6395,0.6411,0.6416,0.643,0.645,0.6465,0.6467,0.6491,0.65,0.6511,0.6528,0.6536,0.6556,0.6568,0.6576,0.6567,0.6579,0.657,0.6558,0.656,0.6559,0.6557,0.6553,0.6552,0.657,0.657,0.657,0,0.638,0.6396,0.6418,0.6426,0.6436,0.6458,0.6463,0.6475,0.6498,0.6503,0.651,0.6535,0.6548,0.6558,0.6556,0.6562,0.6564,0.6568,0.6557,0.6556,0.6555,0.6551,0.655,0.6569,0.6569,0.6569,0.6569,0,0.6376,0.6387,0.6389,0.6412,0.6421,0.6428,0.645,0.6457,0.6469,0.6483,0.6493,0.6511,0.6526,0.653,0.6541,0.6541,0.6544,0.6553,0.6564,0.6551,0.6548,0.6547,0.6567,0.6567,0.6568,0.6568,0,0,0.6347,0.6381,0.6381,0.6391,0.6416,0.6424,0.6432,0.6448,0.6453,0.6468,0.6474,0.649,0.6499,0.6509,0.6522,0.6525,0.6515,0.6534,0.6535,0.6529,0.6515,0.6507,0.6505,0.6524,0.6523,0.6523,0.6513,0,0.6337,0.6353,0.6372,0.6381,0.6391,0.6411,0.6418,0.6432,0.6446,0.6455,0.647,0.648,0.6492,0.6498,0.6501,0.6516,0.6512,0.6517,0.6529,0.6529,0.6523,0.6503,0.6495,0.6485,0.6512,0.6512,0.6512,0,0.6327,0.6342,0.6352,0.6375,0.638,0.6385,0.6401,0.641,0.6427,0.6437,0.6447,0.6462,0.647,0.648,0.6491,0.6493,0.6499,0.6507,0.6507,0.6509,0.6519,0.6504,0.6482,0.648,0.651,0.651,0.651,0,0.6304,0.6326,0.6335,0.6343,0.637,0.6374,0.6385,0.6402,0.641,0.6424,0.6429,0.6443,0.6451,0.6461,0.6478,0.6484,0.6487,0.6498,0.6494,0.6494,0.6493,0.6493,0.6472,0.6498,0.6498,0.6498,0.6498,0,0.6291,0.6296,0.6325,0.633,0.6336,0.6358,0.6363,0.6376,0.6391,0.6398,0.6417,0.6423,0.6446,0.6455,0.6469,0.6475,0.6479,0.6486,0.6489,0.6484,0.6483,0.6488,0.6489,0.6498,0.6498,0.6498,0.6498,0,0.6266,0.6286,0.6297,0.6321,0.6328,0.6331,0.6352,0.6357,0.6371,0.638,0.6384,0.6406,0.6417,0.6436,0.6452,0.6461,0.6465,0.6471,0.6459,0.6461,0.6456,0.6456,0.6436,0.6434,0.6462,0.6462,0.6462,0,0.6256,0.6261,0.6286,0.6293,0.6303,0.6314,0.6322,0.6343,0.6351,0.6371,0.6373,0.6386,0.6398,0.6414,0.6431,0.6444,0.645,0.6442,0.6452,0.6446,0.6449,0.6449,0.6449,0.644,0.644,0.6439,0.6439,0,0.6236,0.6245,0.6257,0.6273,0.6282,0.6295,0.6309,0.6313,0.6337,0.6345,0.6357,0.6366,0.6383,0.6395,0.641,0.642,0.6433,0.6436,0.6435,0.643,0.6422,0.6426,0.6453,0.6436,0.6436,0.6437,0.6437,0.6437,0.6218,0.6223,0.6241,0.6254,0.6266,0.6278,0.6284,0.63,0.631,0.6326,0.6338,0.6349,0.6365,0.6386,0.6396,0.6405,0.641,0.641,0.641,0.6409,0.6407,0.6422,0.6407,0.6408,0.6408,0.6408,0.6408,0,0.6198,0.6211,0.6222,0.6241,0.6251,0.6263,0.6278,0.6285,0.6295,0.6309,0.632,0.6334,0.6346,0.6363,0.6376,0.638,0.6386,0.6382,0.6382,0.6384,0.6401,0.64,0.6377,0.6377,0.6377,0.6377,0.6377,0.6377,0.6189,0.6197,0.6209,0.6223,0.6236,0.6248,0.6255,0.6266,0.6278,0.6292,0.6302,0.6314,0.633,0.6344,0.6355,0.636,0.6363,0.6358,0.6364,0.638,0.6383,0.6385,0.6384,0.6358,0.6358,0.6346,0.6346,0.6346]},{"header":{"parameterUnit":"m.s-1","parameterCategory":1,"la1":30.2991,"la2":30.254,"lo1":-89.0895,"lo2":-89.0444,"dy":0.0017,"dx":0.0017,"nx":28,"ny":28,"refTime":"2024-06-22T03:00:00:Z","depth":0,"parameterNumber":3,"parameterNumberName":"V-component_of_WINDS"},"data":[0,0,0,0,0,0,0,0,0,0,0,0,0,0,0,0,0,0,0,0,0,0,0,0,0,0,0,0,0,0,0,0,0,0,0,0,0,0,0,0,0,0,0,0,0,0,0,0,0,0,0,0,0,0,0,0,0,0,0.8453,0.8454,0,0.8482,0.8483,0.8483,0.8494,0.8494,0.8494,0.8494,0.8522,0.8523,0.8524,0,0,0,0,0,0,0,0,0,0,0,0,0,0.8405,0.8406,0.8453,0.8454,0.8454,0.8482,0.8483,0.8483,0.8494,0.8494,0.8494,0.8494,0.8522,0.8523,0.8524,0,0,0,0,0,0,0,0,0,0,0,0,0,0.8429,0.8406,0.8453,0.8463,0.8464,0.8482,0.8483,0.8483,0.8494,0.8494,0.8494,0.8494,0.8521,0.8523,0.8524,0.8534,0,0,0.8528,0.8528,0,0,0,0,0,0,0,0,0.8428,0.8431,0.8461,0.8462,0.8464,0.8485,0.8476,0.85,0.8494,0.8483,0.8494,0.8494,0.851,0.8512,0.8517,0.8535,0.8536,0.8528,0.8528,0.8529,0.8529,0,0,0,0,0,0,0,0.8426,0.843,0.8465,0.8462,0.8463,0.8465,0.8469,0.8481,0.8496,0.8484,0.8485,0.8488,0.851,0.8516,0.8518,0.8537,0.8528,0.8529,0.8529,0.853,0.8563,0.8563,0,0,0,0,0,0,0.8423,0.8428,0.8464,0.8466,0.8445,0.8466,0.847,0.8478,0.8496,0.8499,0.8488,0.8489,0.8514,0.8517,0.8519,0.8532,0.8529,0.853,0.8531,0.8563,0.8563,0.8564,0,0,0,0,0,0,0.8422,0.8426,0.8463,0.8447,0.8452,0.8467,0.8476,0.8479,0.8485,0.85,0.8502,0.8492,0.8514,0.8517,0.853,0.8533,0.8531,0.8532,0.8563,0.8563,0.8563,0.8558,0,0,0,0,0,0,0.8421,0.8426,0.843,0.8447,0.8453,0.8474,0.8476,0.8479,0.8487,0.8488,0.8504,0.8506,0.8514,0.8528,0.8531,0.8535,0.8533,0.8563,0.8563,0.8563,0.8558,0.8558,0.8558,0,0,0,0,0,0.8419,0.8427,0.843,0.8435,0.8459,0.8474,0.8477,0.8487,0.8487,0.8492,0.8501,0.8506,0.8532,0.8529,0.8533,0.8537,0.8563,0.8563,0.8563,0.8558,0.8558,0.8558,0,0,0,0,0,0,0.8409,0.843,0.8433,0.8448,0.8459,0.8476,0.8482,0.8487,0.8498,0.8498,0.8509,0.8513,0.8524,0.8532,0.8528,0.8547,0.8548,0.8549,0.8542,0.8542,0.8542,0.854,0.8534,0,0,0,0,0,0.8409,0.842,0.8437,0.8448,0.8453,0.8466,0.8473,0.848,0.8492,0.8497,0.8507,0.8518,0.8529,0.8536,0.8547,0.8558,0.8562,0.8563,0.8563,0.8563,0.8564,0.857,0.8571,0.8565,0.8565,0.8565,0,0,0.8408,0.8421,0.8427,0.8446,0.8456,0.8467,0.847,0.8482,0.849,0.8498,0.8511,0.8519,0.8532,0.8544,0.855,0.8551,0.8566,0.8563,0.8563,0.8564,0.857,0.8571,0.8571,0.8565,0.8565,0.8565,0,0,0.8413,0.8423,0.8433,0.8443,0.8458,0.8466,0.8469,0.8485,0.849,0.8504,0.851,0.8519,0.8538,0.8547,0.8553,0.856,0.8565,0.8563,0.8564,0.857,0.857,0.8571,0.8573,0.8574,0.8564,0.8564,0.8564,0,0.841,0.8427,0.8438,0.8449,0.8457,0.8465,0.8475,0.8484,0.8501,0.8506,0.8507,0.853,0.8539,0.8553,0.8555,0.856,0.8563,0.8562,0.8569,0.857,0.8571,0.8573,0.8574,0.8564,0.8564,0.8564,0.8564,0,0.8422,0.8434,0.844,0.8458,0.8466,0.8476,0.8488,0.8495,0.8501,0.8509,0.8522,0.8533,0.8547,0.855,0.8556,0.8565,0.8565,0.8567,0.8568,0.8571,0.8573,0.8574,0.8564,0.8564,0.8564,0.8564,0,0,0.8422,0.8445,0.8447,0.8455,0.8471,0.848,0.8491,0.8504,0.851,0.8521,0.853,0.8545,0.8547,0.8555,0.8561,0.8567,0.8571,0.8568,0.8569,0.8568,0.8582,0.8581,0.8582,0.8574,0.8574,0.8574,0.8581,0,0.8429,0.8449,0.8458,0.8474,0.8484,0.8492,0.8501,0.8512,0.852,0.8529,0.8538,0.8548,0.855,0.8555,0.8561,0.8569,0.8574,0.8569,0.8582,0.8582,0.8579,0.8583,0.8581,0.8587,0.8582,0.8582,0.8582,0,0.8439,0.8451,0.8468,0.8483,0.8488,0.8496,0.8509,0.8518,0.853,0.8535,0.8543,0.855,0.856,0.856,0.8574,0.857,0.8576,0.8581,0.8581,0.8583,0.8583,0.8585,0.8589,0.859,0.8584,0.8584,0.8584,0,0.8438,0.8458,0.847,0.8476,0.8494,0.85,0.8507,0.8519,0.8526,0.8537,0.8542,0.8554,0.856,0.8568,0.8577,0.8576,0.8591,0.8591,0.8595,0.8595,0.8598,0.8597,0.8603,0.8601,0.8601,0.8601,0.8601,0,0.8444,0.8454,0.847,0.8477,0.8488,0.8499,0.8509,0.8517,0.8527,0.8536,0.8543,0.8551,0.8563,0.8572,0.8578,0.8589,0.8592,0.8596,0.8598,0.8595,0.8595,0.8599,0.8599,0.8601,0.8601,0.8601,0.8601,0,0.8444,0.8455,0.8469,0.8485,0.8489,0.8497,0.851,0.8517,0.8525,0.8536,0.8539,0.8551,0.8562,0.8572,0.8586,0.8591,0.8602,0.8604,0.8598,0.8599,0.8602,0.8602,0.8611,0.8613,0.8609,0.8609,0.8609,0,0.8448,0.8456,0.8472,0.8479,0.8487,0.8498,0.8505,0.8515,0.8523,0.8537,0.8542,0.8554,0.8564,0.8581,0.8591,0.8602,0.8604,0.8607,0.8606,0.8603,0.8604,0.8604,0.8604,0.8607,0.8607,0.8607,0.8607,0,0.8453,0.8458,0.8469,0.8482,0.8491,0.8501,0.8512,0.8517,0.8529,0.8537,0.8548,0.8556,0.8571,0.8582,0.8594,0.8601,0.8606,0.8607,0.8608,0.8606,0.8603,0.8605,0.8598,0.8607,0.8607,0.8607,0.8607,0.8607,0.8455,0.8463,0.8476,0.8487,0.8496,0.8506,0.8514,0.8523,0.8533,0.8546,0.8551,0.8563,0.8574,0.8591,0.8598,0.8607,0.8607,0.8609,0.861,0.861,0.861,0.8601,0.8609,0.8609,0.8609,0.8609,0.8609,0,0.8461,0.847,0.8481,0.8495,0.8505,0.8508,0.852,0.8527,0.8538,0.8548,0.8558,0.8571,0.8582,0.8592,0.8603,0.8609,0.8611,0.8611,0.8611,0.8612,0.8609,0.8606,0.8609,0.8609,0.8609,0.8609,0.8609,0.8609,0.8465,0.8478,0.8484,0.8501,0.8509,0.8521,0.8528,0.8536,0.8544,0.8559,0.8568,0.8575,0.8585,0.8597,0.8607,0.861,0.8614,0.8613,0.8617,0.8613,0.8613,0.8613,0.8611,0.8614,0.8614,0.862,0.862,0.862]}]]